EN

Hourly Weather Trichi

Today, 23 April, Friday

Time Temperature Precipitation Wind Pressure Humidity
00:00 0°C° 0 mm 4 mps 744 mmHg 86%
01:00 0°C° 0 mm 4 mps 744 mmHg 88%
02:00 -1°C° 0 mm 5 mps 744 mmHg 91%
03:00 0°C° 0 mm 5 mps 744 mmHg 88%
04:00 0°C° 0 mm 5 mps 744 mmHg 86%
05:00 0°C° 0 mm 5 mps 744 mmHg 83%
06:00 0°C° 0.1 mm 5 mps 744 mmHg 84%
07:00 -1°C° 0.1 mm 6 mps 745 mmHg 86%
08:00 +1°C° 0 mm 6 mps 745 mmHg 85%
09:00 +2°C° 0.2 mm 6 mps 745 mmHg 76%
10:00 +3°C° 0.2 mm 6 mps 745 mmHg 67%
11:00 +4°C° 0.2 mm 6 mps 745 mmHg 58%
12:00 +4°C° 0.2 mm 7 mps 745 mmHg 54%
13:00 +5°C° 0.2 mm 7 mps 746 mmHg 50%
14:00 +5°C° 0 mm 7 mps 746 mmHg 46%
15:00 +5°C° 0.2 mm 7 mps 746 mmHg 49%
16:00 +4°C° 0.2 mm 7 mps 746 mmHg 52%
17:00 +3°C° 0.2 mm 7 mps 747 mmHg 54%
18:00 +2°C° 0 mm 6 mps 747 mmHg 58%
19:00 +1°C° 0 mm 5 mps 747 mmHg 62%
20:00 0°C° 0 mm 4 mps 747 mmHg 66%
21:00 -1°C° 0 mm 4 mps 747 mmHg 71%
22:00 -2°C° 0 mm 4 mps 748 mmHg 75%
23:00 -2°C° 0 mm 4 mps 748 mmHg 79%

Tomorrow, 24 April, Saturday

Time Temperature Precipitation Wind Pressure Humidity
00:00 -2°C° 0 mm 4 mps 748 mmHg 81%
01:00 -3°C° 0 mm 4 mps 748 mmHg 83%
02:00 -2°C° 0 mm 3 mps 748 mmHg 86%
03:00 -2°C° 0 mm 3 mps 748 mmHg 85%
04:00 -2°C° 0 mm 3 mps 748 mmHg 85%
05:00 -2°C° 0 mm 3 mps 748 mmHg 84%
06:00 -1°C° 0 mm 3 mps 748 mmHg 75%
07:00 0°C° 0 mm 4 mps 748 mmHg 65%
08:00 +3°C° 0 mm 4 mps 748 mmHg 56%
09:00 +3°C° 0 mm 5 mps 748 mmHg 51%
10:00 +5°C° 0 mm 5 mps 748 mmHg 45%
11:00 +5°C° 0 mm 6 mps 748 mmHg 40%
12:00 +5°C° 0.1 mm 6 mps 748 mmHg 42%
13:00 +5°C° 0.1 mm 6 mps 748 mmHg 45%
14:00 +5°C° 0.1 mm 7 mps 748 mmHg 48%
15:00 +5°C° 0.1 mm 7 mps 748 mmHg 47%
16:00 +5°C° 0.1 mm 6 mps 748 mmHg 46%
17:00 +5°C° 0.1 mm 6 mps 748 mmHg 45%
18:00 +5°C° 0 mm 5 mps 748 mmHg 50%
19:00 +3°C° 0 mm 4 mps 748 mmHg 55%
20:00 +2°C° 0 mm 3 mps 748 mmHg 60%
21:00 0°C° 0 mm 3 mps 748 mmHg 65%
22:00 -1°C° 0 mm 3 mps 748 mmHg 71%
23:00 -2°C° 0 mm 3 mps 748 mmHg 77%

Day after tomorrow, 25 April, Sunday

Time Temperature Precipitation Wind Pressure Humidity
00:00 -2°C° 0 mm 3 mps 748 mmHg 79%
01:00 -4°C° 0 mm 3 mps 748 mmHg 81%
02:00 -4°C° 0 mm 3 mps 748 mmHg 83%
03:00 -4°C° 0 mm 3 mps 748 mmHg 83%
04:00 -2°C° 0 mm 3 mps 748 mmHg 83%
05:00 -2°C° 0 mm 3 mps 748 mmHg 83%
06:00 -2°C° 0 mm 4 mps 748 mmHg 76%
07:00 -1°C° 0 mm 4 mps 748 mmHg 69%
08:00 +1°C° 0 mm 5 mps 748 mmHg 62%
09:00 +2°C° 0.2 mm 5 mps 748 mmHg 57%
10:00 +3°C° 0.2 mm 6 mps 748 mmHg 52%
11:00 +4°C° 0.2 mm 6 mps 748 mmHg 47%
12:00 +4°C° 0.3 mm 6 mps 747 mmHg 48%
13:00 +4°C° 0.3 mm 6 mps 747 mmHg 49%
14:00 +4°C° 0.3 mm 6 mps 747 mmHg 50%
15:00 +4°C° 0.2 mm 6 mps 747 mmHg 52%
16:00 +5°C° 0.2 mm 5 mps 747 mmHg 53%
17:00 +5°C° 0.2 mm 5 mps 747 mmHg 54%
18:00 +3°C° 0.1 mm 4 mps 747 mmHg 60%
19:00 +1°C° 0.1 mm 4 mps 747 mmHg 65%
20:00 0°C° 0.1 mm 3 mps 747 mmHg 70%
21:00 -1°C° 0 mm 3 mps 747 mmHg 74%
22:00 -2°C° 0 mm 3 mps 747 mmHg 79%
23:00 -4°C° 0 mm 3 mps 748 mmHg 83%

26 April, Monday

Time Temperature Precipitation Wind Pressure Humidity
00:00 -4°C° 0 mm 3 mps 747 mmHg 85%
01:00 -4°C° 0 mm 3 mps 747 mmHg 88%
02:00 -4°C° 0 mm 3 mps 747 mmHg 90%
03:00 -4°C° 0.1 mm 3 mps 747 mmHg 91%
04:00 -2°C° 0.1 mm 3 mps 747 mmHg 92%
05:00 -2°C° 0.1 mm 3 mps 747 mmHg 92%
06:00 -1°C° 0.1 mm 3 mps 747 mmHg 87%
07:00 -1°C° 0.1 mm 4 mps 747 mmHg 82%
08:00 0°C° 0.1 mm 4 mps 747 mmHg 77%
09:00 +1°C° 0.1 mm 5 mps 747 mmHg 70%
10:00 +2°C° 0.1 mm 5 mps 746 mmHg 62%
11:00 +3°C° 0.1 mm 6 mps 746 mmHg 55%
12:00 +3°C° 0.2 mm 6 mps 746 mmHg 55%
13:00 +3°C° 0.2 mm 6 mps 746 mmHg 54%
14:00 +4°C° 0.2 mm 6 mps 746 mmHg 53%
15:00 +4°C° 0.2 mm 6 mps 745 mmHg 55%
16:00 +3°C° 0.2 mm 6 mps 745 mmHg 57%
17:00 +3°C° 0.2 mm 6 mps 745 mmHg 59%
18:00 +2°C° 0 mm 5 mps 745 mmHg 63%
19:00 +1°C° 0 mm 5 mps 744 mmHg 67%
20:00 0°C° 0 mm 4 mps 744 mmHg 71%
21:00 -1°C° 0.1 mm 5 mps 744 mmHg 79%
22:00 -1°C° 0.1 mm 5 mps 744 mmHg 87%
23:00 -3°C° 0.1 mm 6 mps 744 mmHg 95%

27 April, Tuesday

Time Temperature Precipitation Wind Pressure Humidity
00:00 -3°C° 0.4 mm 6 mps 743 mmHg 96%
01:00 -1°C° 0.4 mm 5 mps 743 mmHg 96%
02:00 -1°C° 0.4 mm 5 mps 743 mmHg 97%
03:00 0°C° 0.1 mm 5 mps 743 mmHg 96%
04:00 0°C° 0.1 mm 5 mps 743 mmHg 95%
05:00 +1°C° 0.1 mm 5 mps 743 mmHg 95%
06:00 +1°C° 0 mm 5 mps 744 mmHg 95%
07:00 +1°C° 0 mm 5 mps 744 mmHg 95%
08:00 +1°C° 0 mm 5 mps 744 mmHg 96%
09:00 +1°C° 0.1 mm 5 mps 744 mmHg 91%
10:00 +2°C° 0.1 mm 5 mps 745 mmHg 86%
11:00 +3°C° 0.1 mm 4 mps 745 mmHg 82%
12:00 +4°C° 0.1 mm 4 mps 745 mmHg 78%
13:00 +5°C° 0.1 mm 4 mps 745 mmHg 75%
14:00 +5°C° 0.1 mm 4 mps 745 mmHg 71%
15:00 +5°C° 0.1 mm 4 mps 745 mmHg 70%
16:00 +5°C° 0.1 mm 3 mps 745 mmHg 69%
17:00 +7°C° 0.1 mm 3 mps 745 mmHg 68%
18:00 +6°C° 0.1 mm 2 mps 745 mmHg 73%
19:00 +5°C° 0.1 mm 2 mps 745 mmHg 77%
20:00 +5°C° 0.1 mm 1 mps 745 mmHg 82%
21:00 +4°C° 0 mm 1 mps 745 mmHg 84%
22:00 +4°C° 0 mm 1 mps 745 mmHg 86%
23:00 +2°C° 0 mm 0 mps 745 mmHg 89%

28 April, Wednesday

Time Temperature Precipitation Wind Pressure Humidity
00:00 +3°C° 0 mm 1 mps 745 mmHg 89%
01:00 +2°C° 0 mm 1 mps 745 mmHg 90%
02:00 +2°C° 0 mm 1 mps 745 mmHg 91%
03:00 +2°C° 0 mm 1 mps 744 mmHg 91%
04:00 +2°C° 0 mm 1 mps 744 mmHg 91%
05:00 +1°C° 0 mm 2 mps 744 mmHg 92%
06:00 +2°C° 0 mm 2 mps 744 mmHg 88%
07:00 +3°C° 0 mm 2 mps 744 mmHg 84%
08:00 +4°C° 0 mm 2 mps 744 mmHg 81%
09:00 +5°C° 0 mm 2 mps 744 mmHg 77%
10:00 +5°C° 0 mm 3 mps 743 mmHg 73%
11:00 +7°C° 0 mm 3 mps 743 mmHg 69%
12:00 +7°C° 0.1 mm 3 mps 743 mmHg 69%
13:00 +7°C° 0.1 mm 3 mps 743 mmHg 70%
14:00 +7°C° 0.1 mm 3 mps 742 mmHg 71%
15:00 +7°C° 0.4 mm 3 mps 742 mmHg 76%
16:00 +5°C° 0.4 mm 3 mps 742 mmHg 82%
17:00 +5°C° 0.4 mm 3 mps 741 mmHg 88%
18:00 +4°C° 0.4 mm 3 mps 741 mmHg 89%
19:00 +4°C° 0.4 mm 3 mps 741 mmHg 91%
20:00 +4°C° 0.4 mm 3 mps 741 mmHg 93%
21:00 +4°C° 0.3 mm 3 mps 741 mmHg 93%
22:00 +3°C° 0.3 mm 3 mps 741 mmHg 94%
23:00 +3°C° 0.3 mm 3 mps 741 mmHg 94%
Show more

We Need Your Consent

Meteoprog and our Service Providers may store and access personal data such as cookies, device identifiers or other similar technologies on your device and process such data to personalise content and ads, as well as provide social media features and to analyse the traffic.

  • Store and/or access information on your device

    Cookies, device identifiers or other information can be stored or accessed on your device for the purposes indicated above.

  • Personalised ads and content, ad and content measurement, audience insights, and products development

    Ads and content can be personalised based on a profile. More data can be added to better personalise ads and content. Ad and content performance can be measured. Insights about the audience who saw the ads and content can be derived. Such data can be used to develop or improve user’s experience, systems and software.

By clicking ‘I Agree’ you will allow the use of indicated cookies, device identifiers, web beacons or other similar technologies. Your settings can be changed in the browser on your device.

For certain purposes, legitimate interests may be relied on, rather than consent. You can read more about this in our Privacy and Cookie Policy.